Flag for Norway Weather past 2 weeks in Fevik, Norway

Now
35 °F

Chilly.


Feels Like: 35 °F
Forecast: 40 / 47 °F
Wind: 2 mph from West

Location: Torungen Fyr

Current Time: Mar 5, 2015 at 1:34:47 AM

Latest Report: Mar 5, 2015 at 12:00 AM


Visibility: N/A

Pressure: 30.21 "Hg

Humidity: 76%

Dew point: 28 °F

Location of FevikLocation

Historic Weather in Fevik — Graph

°F

Fevik temperature yesterday

Maximum temperature yesterday: 42 °F (at 6:00 PM)
Minimum temperature yesterday: 29 °F (at 7:00 AM)
Average temperature yesterday: 36 °F

Past Weeks' High & Low Weather Summary

 TemperatureHumidityPressure
High47 °F (Feb 18, 3:00 PM)98% (Feb 19, 8:00 AM)30.25 "Hg (Feb 19, 8:00 AM)
Low29 °F (Mar 4, 7:00 AM)50% (Mar 4, 7:00 PM)28.91 "Hg (Feb 23, 10:00 AM)
Average39 °F89%29.55 "Hg
* Reported Feb 18 1:00 AM — Midnight between Mar 4 and Mar 5, Fevik, Weather by CustomWeather, © 2015

Note: Actual official high and low records may vary slightly from our data, if they occured in-between our weather recording intervals... More about our weather records

Advertising

Fevik weather history for previous 24 hours

 ConditionsComfort  
Time TempWeatherWind HumidityBarometerVisibility
12:00 AM
Thu, Mar 5
35 °FChilly.2 mph76%30.21 "HgN/A
11:00 PM
Wed, Mar 4
36 °FChilly.3 mph71%30.19 "HgN/A
9:00 PM36 °FChilly.5 mph59%30.14 "HgN/A
8:00 PM38 °FChilly.7 mph57%30.11 "HgN/A
7:00 PM40 °FChilly.8 mph50%30.08 "HgN/A
6:00 PM42 °FQuite cool.7 mph53%30.04 "HgN/A
5:00 PM41 °FQuite cool.6 mph77%30.01 "HgN/A
4:00 PM40 °FQuite cool.6 mph80%29.98 "HgN/A
3:00 PM41 °FQuite cool.6 mph71%29.94 "HgN/A
2:00 PM41 °FQuite cool.3 mph72%29.92 "HgN/A
1:00 PM40 °FQuite cool.1 mph71%29.90 "HgN/A
12:00 PM39 °FChilly.1 mph70%29.87 "HgN/A
11:00 AM36 °FChilly.2 mph75%29.84 "HgN/A
10:00 AM33 °FChilly.3 mph81%29.81 "HgN/A
9:00 AM31 °FChilly.3 mph87%29.78 "HgN/A
8:00 AM30 °FChilly.5 mph90%29.76 "HgN/A
7:00 AM29 °FChilly.3 mph91%29.75 "HgN/A
6:00 AM30 °FChilly.3 mph92%29.73 "HgN/A
5:00 AM30 °FChilly.2 mph92%29.71 "HgN/A
3:00 AM32 °FChilly.1 mph91%29.70 "HgN/A
2:00 AM32 °FChilly.3 mph92%29.68 "HgN/A
1:00 AM33 °FChilly.3 mph91%29.68 "HgN/A
Weather by CustomWeather, © 2015

See weather overviewHow to use our weather pages